FW9096 Weather Reports


Display with metric or nautical units.
time (UTC)temp
F
wind
direction
speed
MPH
gust
MPH
rain 1hr
in
rain 24hr
in
rain mn
in
humidity
%
barometer
mb
20260906152030 85 143 0.0 3.0 0.00 0.00 0.00 67 1014.9
20260906151529 84 89 0.0 3.0 0.00 0.00 0.00 68 1014.8
20260906151027 84 5 0.0 3.0 0.00 0.00 0.00 68 1014.7
20260906150527 83 150 0.0 3.0 0.00 0.00 0.00 70 1014.8
20260906150037 82 64 0.0 2.0 0.00 0.00 0.00 71 1014.6
20260906145523 82 57 0.0 1.0 0.00 0.00 0.00 72 1014.6
20260906145022 81 60 0.0 1.0 0.00 0.00 0.00 73 1014.6
20260906144526 80 53 0.0 1.0 0.00 0.00 0.00 76 1014.5
20260906144019 80 5 0.0 1.0 0.00 0.00 0.00 76 1014.6
20260906143518 79 114 0.0 1.0 0.00 0.00 0.00 77 1014.7
20260906143017 78 355 0.0 0.0 0.00 0.00 0.00 80 1014.6
20260906142516 77 350 0.0 1.0 0.00 0.00 0.00 81 1014.5
20260906142020 77 350 0.0 3.0 0.00 0.00 0.00 82 1014.5
20260906141518 76 355 0.0 1.0 0.00 0.00 0.00 82 1014.4
20260906141016 76 136 0.0 1.0 0.00 0.00 0.00 82 1014.4
20260906140516 76 59 0.0 1.0 0.00 0.00 0.00 83 1014.4
20260906140021 76 28 0.0 1.0 0.00 0.00 0.00 83 1014.3
20260906135516 75 22 0.0 1.0 0.00 0.00 0.00 83 1014.3
20260906135015 75 249 0.0 1.0 0.00 0.00 0.00 83 1014.3
20260906134534 75 90 0.0 1.0 0.00 0.00 0.00 84 1014.3
20260906134016 75 88 0.0 1.0 0.00 0.00 0.00 85 1014.4
20260906133515 74 88 0.0 2.0 0.00 0.00 0.00 85 1014.4
20260906133015 74 320 0.0 2.0 0.00 0.00 0.00 85 1014.4
20260906132515 74 20 0.0 1.0 0.00 0.00 0.00 86 1014.4
20260906132017 74 5 0.0 1.0 0.00 0.00 0.00 86 1014.4
20260906131515 74 94 0.0 0.0 0.00 0.00 0.00 87 1014.5
20260906131017 74 94 0.0 0.0 0.00 0.00 0.00 87 1014.4
20260906130514 74 94 0.0 0.0 0.00 0.00 0.00 87 1014.5
20260906130014 73 94 0.0 1.0 0.00 0.00 0.00 87 1014.5
20260906125514 73 94 0.0 1.0 0.00 0.00 0.00 87 1014.5
20260906125017 73 137 0.0 1.0 0.00 0.00 0.00 87 1014.5
20260906124513 73 164 0.0 2.0 0.00 0.00 0.00 88 1014.4
20260906124013 73 166 0.0 2.0 0.00 0.00 0.00 88 1014.4
20260906123512 73 159 0.0 0.0 0.00 0.00 0.00 88 1014.4
20260906123020 73 159 0.0 0.0 0.00 0.00 0.00 88 1014.3
20260906122511 73 159 0.0 0.0 0.00 0.00 0.00 88 1014.2
20260906122011 73 159 0.0 0.0 0.00 0.00 0.00 88 1014.1
20260906121509 73 159 0.0 0.0 0.00 0.00 0.00 88 1014.0
20260906121010 73 159 0.0 0.0 0.00 0.00 0.00 88 1014.0
20260906120509 73 159 0.0 0.0 0.00 0.00 0.00 88 1014.0
20260906120007 73 159 0.0 0.0 0.00 0.00 0.00 88 1013.9
20260906115508 73 159 0.0 0.0 0.00 0.00 0.00 88 1013.8
20260906115006 74 159 0.0 0.0 0.00 0.00 0.00 88 1013.7
20260906114509 74 159 0.0 0.0 0.00 0.00 0.00 88 1013.6
20260906114005 74 159 0.0 0.0 0.00 0.00 0.00 88 1013.6
20260906113504 74 159 0.0 1.0 0.00 0.00 0.00 87 1013.5
20260906113004 74 159 0.0 1.0 0.00 0.00 0.00 87 1013.5
20260906112502 74 159 0.0 0.0 0.00 0.00 0.00 87 1013.5
20260906112002 74 159 0.0 0.0 0.00 0.00 0.00 87 1013.5
20260906111501 74 159 0.0 0.0 0.00 0.00 0.00 87 1013.5
20260906111002 75 159 0.0 0.0 0.00 0.00 0.00 87 1013.5
20260906110501 75 159 0.0 0.0 0.00 0.00 0.00 86 1013.5
20260906110002 75 159 0.0 0.0 0.00 0.00 0.00 86 1013.6
20260906105603 75 159 0.0 0.0 0.00 0.00 0.00 86 1013.6
20260906105059 75 159 0.0 0.0 0.00 0.00 0.00 86 1013.5
20260906104628 75 159 0.0 0.0 0.00 0.00 0.00 86 1013.4
20260906104100 75 159 0.0 0.0 0.00 0.00 0.00 86 1013.3
20260906103557 75 159 0.0 0.0 0.00 0.00 0.00 86 1013.3
20260906103057 76 159 0.0 0.0 0.00 0.00 0.00 85 1013.2
20260906102556 76 159 0.0 0.0 0.00 0.00 0.00 85 1013.2
20260906102054 76 159 0.0 0.0 0.00 0.00 0.00 85 1013.2
20260906101554 76 159 0.0 0.0 0.00 0.00 0.00 85 1013.1
20260906101053 76 159 0.0 0.0 0.00 0.00 0.00 85 1013.1
20260906100552 76 159 0.0 0.0 0.00 0.00 0.00 85 1013.0
20260906100051 76 159 0.0 0.0 0.00 0.00 0.00 85 1012.9
20260906095551 76 159 0.0 0.0 0.00 0.00 0.00 85 1012.9
20260906095051 77 162 0.0 0.0 0.00 0.00 0.00 85 1012.9
20260906094551 77 162 0.0 0.0 0.00 0.00 0.00 84 1012.9
20260906094050 77 162 0.0 0.0 0.00 0.00 0.00 84 1012.8
20260906093549 77 162 0.0 0.0 0.00 0.00 0.00 85 1012.8
20260906093103 77 162 0.0 0.0 0.00 0.00 0.00 85 1012.9
20260906092548 77 162 0.0 1.0 0.00 0.00 0.00 85 1012.9
20260906092048 77 162 0.0 1.0 0.00 0.00 0.00 85 1012.9
20260906091548 77 167 0.0 1.0 0.00 0.00 0.00 85 1012.8
20260906091048 77 71 0.0 1.0 0.00 0.00 0.00 86 1012.8
20260906090548 77 71 0.0 2.0 0.00 0.00 0.00 86 1012.8
20260906090046 77 161 0.0 2.0 0.00 0.00 0.00 86 1012.8
20260906085545 77 132 0.0 0.0 0.00 0.00 0.00 86 1012.6
20260906085050 77 133 0.0 1.0 0.00 0.00 0.00 86 1012.6
20260906084546 77 133 0.0 1.0 0.00 0.00 0.00 86 1012.6
20260906084046 77 134 0.0 0.0 0.00 0.00 0.00 86 1012.4
20260906083546 77 134 0.0 1.0 0.00 0.00 0.00 87 1012.3
20260906083046 77 134 0.0 1.0 0.00 0.00 0.00 87 1012.3
20260906082544 77 133 0.0 1.0 0.00 0.00 0.00 87 1012.2
20260906082045 77 133 0.0 1.0 0.00 0.00 0.00 87 1012.2
20260906081544 77 13 0.0 0.0 0.00 0.00 0.00 87 1012.2
20260906081044 77 13 0.0 0.0 0.00 0.00 0.00 87 1012.2
20260906080544 77 13 0.0 0.0 0.00 0.00 0.00 87 1012.2
20260906080043 77 355 0.0 0.0 0.00 0.00 0.00 86 1012.1
20260906075543 77 355 0.0 0.0 0.00 0.00 0.00 86 1012.2
20260906075043 77 355 0.0 0.0 0.00 0.00 0.00 86 1012.2
20260906074543 77 355 0.0 0.0 0.00 0.00 0.00 86 1012.2
20260906074042 77 355 0.0 0.0 0.00 0.00 0.00 85 1012.3
20260906073541 77 355 0.0 0.0 0.00 0.00 0.00 85 1012.4
20260906073041 77 355 0.0 0.0 0.00 0.00 0.00 85 1012.4
20260906072541 77 355 0.0 0.0 0.00 0.00 0.00 85 1012.4
20260906072042 77 355 0.0 0.0 0.00 0.00 0.00 85 1012.5
20260906071542 77 355 0.0 0.0 0.00 0.00 0.00 85 1012.4
20260906071040 77 355 0.0 0.0 0.00 0.00 0.00 84 1012.3
20260906070540 77 355 0.0 0.0 0.00 0.00 0.00 84 1012.3
20260906070040 77 355 0.0 0.0 0.00 0.00 0.00 84 1012.3
20260906065543 77 355 0.0 0.0 0.00 0.00 0.00 83 1012.3
20260906065040 77 355 0.0 0.0 0.00 0.00 0.00 83 1012.4
20260906064539 77 355 0.0 0.0 0.00 0.00 0.00 83 1012.3
20260906064039 77 355 0.0 0.0 0.00 0.00 0.00 83 1012.4
20260906063538 77 355 0.0 0.0 0.00 0.00 0.00 83 1012.5
20260906063039 77 355 0.0 0.0 0.00 0.00 0.00 83 1012.5
20260906062537 77 355 0.0 0.0 0.00 0.00 0.00 82 1012.6
20260906062037 77 355 0.0 0.0 0.00 0.00 0.00 82 1012.5
20260906061537 78 355 0.0 0.0 0.00 0.00 0.00 82 1012.5
20260906061036 78 355 0.0 0.0 0.00 0.00 0.00 82 1012.5
20260906060536 78 355 0.0 0.0 0.00 0.00 0.00 82 1012.5
20260906060037 78 355 0.0 0.0 0.00 0.00 0.00 82 1012.4
20260906055536 78 355 0.0 0.0 0.00 0.00 0.00 81 1012.5
20260906055036 78 355 0.0 0.0 0.00 0.00 0.00 81 1012.4
20260906054535 78 355 0.0 0.0 0.00 0.00 0.00 81 1012.4
20260906054034 78 355 0.0 0.0 0.00 0.00 0.00 81 1012.4
20260906053533 78 355 0.0 0.0 0.00 0.00 0.00 80 1012.5
20260906053039 78 355 0.0 0.0 0.00 0.00 0.00 80 1012.5
20260906052534 78 355 0.0 0.0 0.00 0.00 0.00 80 1012.5
20260906052032 79 355 0.0 0.0 0.00 0.00 0.00 80 1012.5
20260906051533 79 355 0.0 0.0 0.00 0.00 0.00 80 1012.5
20260906051031 79 355 0.0 0.0 0.00 0.00 0.00 80 1012.4
20260906050530 79 355 0.0 0.0 0.00 0.00 0.00 79 1012.3
20260906050029 79 355 0.0 0.0 0.00 0.00 0.00 80 1012.3
20260906045528 79 355 0.0 0.0 0.00 0.00 0.00 79 1012.3
20260906045029 79 355 0.0 0.0 0.00 0.00 0.00 79 1012.3
20260906044529 79 355 0.0 0.0 0.00 0.00 0.00 79 1012.3
20260906044028 79 355 0.0 0.0 0.00 0.00 0.00 78 1012.2
20260906043528 79 355 0.0 0.0 0.00 0.00 0.00 78 1012.2
20260906043030 79 355 0.0 0.0 0.00 0.00 0.00 79 1012.2
20260906042527 79 355 0.0 0.0 0.00 0.00 0.00 78 1012.2
20260906042027 79 355 0.0 0.0 0.00 0.00 0.00 78 1012.1
20260906041528 79 355 0.0 0.0 0.00 0.00 0.00 78 1012.1
20260906041028 80 355 0.0 0.0 0.00 0.00 0.00 78 1012.1
20260906040527 80 355 0.0 0.0 0.00 0.00 0.00 78 1012.0
20260906040034 80 355 0.0 0.0 0.00 0.00 0.00 77 1012.0
20260906035527 80 355 0.0 0.0 0.00 0.00 0.00 77 1012.0
20260906035027 80 355 0.0 0.0 0.00 0.00 0.00 77 1012.0
20260906034533 80 355 0.0 0.0 0.00 0.00 0.00 77 1011.9
20260906034027 80 355 0.0 0.0 0.00 0.00 0.00 77 1011.9
20260906033527 80 355 0.0 0.0 0.00 0.00 0.00 76 1011.9
20260906033027 80 355 0.0 0.0 0.00 0.00 0.00 76 1011.9
20260906032528 80 355 0.0 0.0 0.00 0.00 0.00 76 1011.9
20260906032026 81 355 0.0 0.0 0.00 0.00 0.00 76 1011.9
20260906031525 81 355 0.0 0.0 0.00 0.00 0.00 76 1011.8
20260906031029 81 355 0.0 0.0 0.00 0.00 0.00 76 1011.8
20260906030526 81 355 0.0 0.0 0.00 0.00 0.00 75 1011.7
20260906030025 81 355 0.0 0.0 0.00 0.00 0.00 75 1011.7
20260906025525 81 355 0.0 0.0 0.00 0.00 0.00 75 1011.6
20260906025025 82 355 0.0 0.0 0.00 0.00 0.00 75 1011.5
20260906024525 82 355 0.0 0.0 0.00 0.00 0.00 75 1011.5
20260906024025 82 355 0.0 0.0 0.00 0.00 0.00 74 1011.4
20260906023528 82 355 0.0 0.0 0.00 0.00 0.00 74 1011.4
20260906023025 82 355 0.0 0.0 0.00 0.00 0.00 73 1011.3
20260906022524 82 355 0.0 0.0 0.00 0.00 0.00 73 1011.1
20260906022024 83 355 0.0 0.0 0.00 0.00 0.00 73 1011.1
20260906021523 83 355 0.0 0.0 0.00 0.00 0.00 73 1011.0
20260906021026 83 355 0.0 0.0 0.00 0.00 0.00 73 1011.0
20260906020524 83 355 0.0 0.0 0.00 0.00 0.00 72 1010.9
20260906020026 83 355 0.0 0.0 0.00 0.00 0.00 71 1010.8
20260906015523 84 355 0.0 0.0 0.00 0.00 0.00 71 1010.7
20260906015024 84 355 0.0 0.0 0.00 0.00 0.00 71 1010.6
20260906014528 84 355 0.0 0.0 0.00 0.00 0.00 70 1010.6
20260906014023 85 355 0.0 0.0 0.00 0.00 0.00 70 1010.6
20260906013523 85 355 0.0 0.0 0.00 0.00 0.00 69 1010.5
20260906013028 85 355 0.0 0.0 0.00 0.00 0.00 69 1010.4
20260906012524 86 355 0.0 0.0 0.00 0.00 0.00 68 1010.4
20260906012022 86 355 0.0 0.0 0.00 0.00 0.00 68 1010.4
20260906011522 86 355 0.0 0.0 0.00 0.00 0.00 68 1010.3
20260906011021 87 355 0.0 0.0 0.00 0.00 0.00 67 1010.3
20260906010526 87 355 0.0 0.0 0.00 0.00 0.00 66 1010.2
20260906010022 87 355 0.0 0.0 0.00 0.00 0.00 66 1010.2
20260906005527 88 355 0.0 0.0 0.00 0.00 0.00 66 1010.2
20260906005022 88 355 0.0 0.0 0.00 0.00 0.00 65 1010.2
20260906004522 89 355 0.0 0.0 0.00 0.00 0.00 64 1010.2
20260906004021 89 355 0.0 0.0 0.00 0.00 0.00 64 1010.0
20260906003521 90 355 0.0 0.0 0.00 0.00 0.00 63 1010.0
20260906003022 90 355 0.0 0.0 0.00 0.00 0.00 63 1010.0
20260906002521 90 355 0.0 0.0 0.00 0.00 0.00 63 1010.1
20260906002021 91 355 0.0 0.0 0.00 0.00 0.00 61 1010.1
20260906001521 91 355 0.0 0.0 0.00 0.00 0.00 60 1010.1
20260906001020 91 355 0.0 0.0 0.00 0.00 0.00 61 1010.1
20260906000520 92 355 0.0 0.0 0.00 0.00 0.00 60 1010.1
20260906000022 92 355 0.0 0.0 0.00 0.00 0.00 60 1010.1
20260905235521 93 355 0.0 0.0 0.00 0.00 0.00 59 1010.2
20260905235023 93 355 0.0 0.0 0.00 0.00 0.00 59 1010.2
20260905234521 93 355 0.0 0.0 0.00 0.00 0.00 59 1010.2
20260905234020 93 355 0.0 1.0 0.00 0.00 0.00 58 1010.2
20260905233520 94 355 0.0 1.0 0.00 0.00 0.00 54 1010.2
20260905233027 94 345 0.0 0.0 0.00 0.00 0.00 56 1010.3
20260905232521 94 345 0.0 0.0 0.00 0.00 0.00 55 1010.3
20260905232019 94 345 0.0 2.0 0.00 0.00 0.00 55 1010.2
20260905231519 94 345 0.0 3.0 0.00 0.00 0.00 55 1010.3
20260905231022 95 46 0.0 1.0 0.00 0.00 0.00 56 1010.3
20260905230518 95 27 0.0 3.0 0.00 0.00 0.00 55 1010.4
20260905230019 95 165 0.0 2.0 0.00 0.00 0.00 55 1010.3
20260905225518 95 123 0.0 0.0 0.00 0.00 0.00 56 1010.3
20260905225018 95 123 0.0 0.0 0.00 0.00 0.00 56 1010.2
20260905224518 95 123 0.0 2.0 0.00 0.00 0.00 54 1010.2
20260905224020 96 123 0.0 2.0 0.00 0.00 0.00 54 1010.1
20260905223518 96 62 0.0 1.0 0.00 0.00 0.00 56 1010.0
20260905223018 96 62 0.0 1.0 0.00 0.00 0.00 52 1010.0
20260905222518 97 62 0.0 1.0 0.00 0.00 0.00 51 1009.9
20260905222021 97 62 0.0 0.0 0.00 0.00 0.00 51 1009.9
20260905221529 97 62 0.0 1.0 0.00 0.00 0.00 51 1009.8
20260905221017 98 62 0.0 1.0 0.00 0.00 0.00 51 1009.9
20260905220516 98 62 0.0 1.0 0.00 0.00 0.00 51 1009.9
20260905220016 98 62 0.0 1.0 0.00 0.00 0.00 49 1010.1
20260905215519 98 61 0.0 1.0 0.00 0.00 0.00 53 1010.1
20260905215015 98 61 0.0 1.0 0.00 0.00 0.00 52 1010.1
20260905214515 98 122 0.0 1.0 0.00 0.00 0.00 53 1010.1
20260905214016 98 122 0.0 1.0 0.00 0.00 0.00 50 1010.1
20260905213518 98 122 0.0 1.0 0.00 0.00 0.00 51 1010.2
20260905213016 98 80 0.0 0.0 0.00 0.00 0.00 52 1010.2
20260905212514 99 80 0.0 1.0 0.00 0.00 0.00 49 1010.2
20260905212014 99 80 0.0 0.0 0.00 0.00 0.00 49 1010.1
20260905211526 100 80 0.0 2.0 0.00 0.00 0.00 47 1010.1
20260905211016 100 80 0.0 2.0 0.00 0.00 0.00 44 1010.0
20260905210514 101 76 0.0 2.0 0.00 0.00 0.00 45 1010.1
20260905210014 101 85 0.0 3.0 0.00 0.00 0.00 44 1010.2
20260905205514 101 14 0.0 3.0 0.00 0.00 0.00 41 1010.4
20260905205012 100 231 0.0 1.0 0.00 0.00 0.00 42 1010.4
20260905204513 100 231 0.0 1.0 0.00 0.00 0.00 43 1010.4
20260905204012 100 169 0.0 2.0 0.00 0.00 0.00 44 1010.4
20260905203513 100 177 0.0 2.0 0.00 0.00 0.00 47 1010.3
20260905203016 99 218 0.0 1.0 0.00 0.00 0.00 44 1010.2
20260905202510 99 218 0.0 1.0 0.00 0.00 0.00 46 1010.4
20260905202009 99 216 0.0 1.0 0.00 0.00 0.00 48 1010.5
20260905201509 98 223 0.0 2.0 0.00 0.00 0.00 46 1010.6
20260905201008 97 215 0.0 2.0 0.00 0.00 0.00 47 1010.6
20260905200508 97 166 0.0 1.0 0.00 0.00 0.00 47 1010.6
20260905200011 98 147 0.0 1.0 0.00 0.00 0.00 48 1010.8
20260905195506 98 148 0.0 0.0 0.00 0.00 0.00 46 1010.9
20260905195007 99 148 0.0 0.0 0.00 0.00 0.00 49 1010.9
20260905194506 99 148 0.0 0.0 0.00 0.00 0.00 46 1010.8
20260905194006 99 148 0.0 0.0 0.00 0.00 0.00 44 1010.8
20260905193505 99 148 0.0 0.0 0.00 0.00 0.00 43 1011.0
20260905193005 100 148 0.0 0.0 0.00 0.00 0.00 42 1011.0
20260905192504 101 150 0.0 3.0 0.00 0.00 0.00 42 1011.0
20260905192003 101 150 0.0 3.0 0.00 0.00 0.00 41 1011.0
20260905191504 101 36 0.0 3.0 0.00 0.00 0.00 41 1011.1
20260905191006 101 102 0.0 3.0 0.00 0.00 0.00 40 1011.0
20260905190507 100 142 0.0 5.0 0.00 0.00 0.00 40 1011.1
20260905190002 100 103 0.0 5.0 0.00 0.00 0.00 46 1011.1
20260905185501 100 169 0.0 0.0 0.00 0.00 0.00 46 1011.2
20260905185002 100 169 0.0 1.0 0.00 0.00 0.00 41 1011.2
20260905184504 101 169 0.0 2.0 0.00 0.00 0.00 40 1011.3
20260905184001 101 99 0.0 2.0 0.00 0.00 0.00 39 1011.3
20260905183601 102 91 0.0 1.0 0.00 0.00 0.00 40 1011.3
20260905183102 102 91 0.0 2.0 0.00 0.00 0.00 40 1011.4
20260905182558 102 99 0.0 2.0 0.00 0.00 0.00 41 1011.3
20260905182057 101 279 0.0 2.0 0.00 0.00 0.00 41 1011.4
20260905181555 101 105 0.0 2.0 0.00 0.00 0.00 41 1011.5
20260905181059 101 5 0.0 3.0 0.00 0.00 0.00 41 1011.5
20260905180554 100 101 0.0 3.0 0.00 0.00 0.00 43 1011.6
20260905180052 100 76 0.0 1.0 0.00 0.00 0.00 42 1011.7
20260905175556 99 77 0.0 2.0 0.00 0.00 0.00 44 1011.8
20260905175051 99 28 0.0 3.0 0.00 0.00 0.00 43 1011.9
20260905174550 99 220 0.0 3.0 0.00 0.00 0.00 44 1012.0
20260905174050 99 128 0.0 2.0 0.00 0.00 0.00 48 1012.0
20260905173551 99 115 0.0 2.0 0.00 0.00 0.00 46 1012.1
20260905173050 99 136 0.0 2.0 0.00 0.00 0.00 46 1012.0
20260905172549 99 137 0.0 2.0 0.00 0.00 0.00 49 1012.0
20260905172049 99 96 0.0 2.0 0.00 0.00 0.00 47 1012.0
20260905171551 99 307 0.0 3.0 0.00 0.00 0.00 45 1012.1
20260905171047 99 307 1.0 3.0 0.00 0.00 0.00 46 1012.2
20260905170547 98 64 0.0 2.0 0.00 0.00 0.00 47 1012.3
20260905170048 98 128 0.0 2.0 0.00 0.00 0.00 47 1012.4
20260905165546 98 82 0.0 2.0 0.00 0.00 0.00 48 1012.4
20260905165046 98 32 0.0 3.0 0.00 0.00 0.00 51 1012.5
20260905164545 98 32 0.0 3.0 0.00 0.00 0.00 48 1012.5
20260905164043 98 47 0.0 2.0 0.00 0.00 0.00 48 1012.5
20260905163543 97 72 0.0 0.0 0.00 0.00 0.00 49 1012.6
20260905163043 97 72 0.0 2.0 0.00 0.00 0.00 50 1012.6
20260905162542 97 61 0.0 1.0 0.00 0.00 0.00 50 1012.7
20260905162042 97 37 0.0 1.0 0.00 0.00 0.00 49 1012.7
20260905161540 96 38 0.0 1.0 0.00 0.00 0.00 51 1012.7
20260905161040 96 38 0.0 1.0 0.00 0.00 0.00 51 1012.8
20260905160540 96 37 0.0 1.0 0.00 0.00 0.00 51 1012.8
20260905160039 96 26 0.0 2.0 0.00 0.00 0.00 49 1012.8
20260905155538 96 26 0.0 2.0 0.00 0.00 0.00 49 1012.8
20260905155036 95 153 0.0 1.0 0.00 0.00 0.00 50 1012.8
20260905154544 95 129 0.0 3.0 0.00 0.00 0.00 50 1012.7
20260905154036 95 127 0.0 3.0 0.00 0.00 0.00 51 1012.7
20260905153536 95 124 0.0 2.0 0.00 0.00 0.00 51 1012.7
20260905153033 94 124 0.0 1.0 0.00 0.00 0.00 52 1012.8
20260905152533 94 124 0.0 2.0 0.00 0.00 0.00 54 1012.8